CZ-6A DEB, 54629

Orbit data source: Space-Track

CZ-6A DEB, 54629 is space debris in SSO originally from a launch on Fri, 11 Nov 2022 UTC launched from the Taiyaun Space Center, China (TSC). Debris objects in space refer to the collection of defunct objects orbiting the Earth. Examples of debris include non-operational satellites, rocket bodies, and fragments generated from explosions, collisions, or faulty payload assembly.

Loading next visibility...
Identifier
54629, 2022-151PF
Orbit
SSO
Country
Flag of CNCN / PRC
Related business
Manufacturer
SAST
Mission
Spacecraft
Bus & Motor
Unknown
Mass
Unknown
Launch date (UTC)
2022-11-11 (4 years ago)
Launch vehicle
Unknown
Launch site
Taiyaun Space Center, China (TSC)
Object type
Payload
Rocket body
Debris
Shape & HBR
Unknown shape, 0.1 m
Radar Cross Section
Medium (>0.1 m² and <1 m²)

Expand to show TLE details & history
Last TLE update: 2 days ago

TLE from 2 days ago
0 CZ-6A DEB
1 54629U 22151PF  26171.45999957  .00013207  00000-0  17143-2 0  9992
2 54629  98.6279 245.0406 0061758 248.8265 110.6338 14.79542939190063
Epoch: 2026-06-20T11:02Z
TLE epoch observation values (Epoch: 2026-06-20T11:02:23.962Z)
Latitude
-0.00005°
Longitude
170.76646°
Altitude
649.255 km
Speed
7.525 km/s
True Right ascension
16h 20m 09s
True Declination
0° 00' 00"
Sunlit
Object was in full shadow at epoch
Visualization orbit readout
Latitude
Unknown
Longitude
Unknown
Altitude
Unknown
Speed
Unknown
Apparent Right ascension
Unknown
Apparent Declination
Unknown
Sunlit
N/A
Visualization observer readout
Local Sidereal Time
21:55:33
Azimuth
Unknown
Elevation
Unknown
Doppler factor
Unknown
Orbital elements
Apogee altitude
671.11 km
Perigee altitude
584.575 km
Semi-major axis
7,005.98 km
Eccentricity
0.00618
Inclination
98.6279°
RAAN
245.0406°
Arg. of periapsis
248.8265°
True anomaly
111.29429°
Mean anomaly
110.6338°
Eccentric anomaly
110.96422°
Mean motion
3.70118 °/min
Orbital period
97.27 mins
BSTAR
0.0017143
Loading maneuver chart data...
Computing Atmospheric mass density...
Loading historical data...
Loading historical data...
Loading historical data...
Loading historical data...
Loading historical data...
Loading historical data...
Loading historical data...

Documentation

Showing up to 5 results
|